This is the latest recevied weather packets stored in our database for station/object N8DMH-13. If no packets are shown the sender has not sent any weather packets the latest 10 day(s).
| Time | Temp. | Humidity | Pressure | Rain* | Wind** | Luminosity | Snow |
|---|---|---|---|---|---|---|---|
| 1787430866 | 22.22° C | 70% | 1010.7 hPa | 0 mm | - | - | - |
| 1787430536 | 22.22° C | 69% | 1010.7 hPa | 0 mm | - | - | - |
| 1787430236 | 22.78° C | 68% | 1010.5 hPa | 0 mm | - | - | - |
| 1787429936 | 22.78° C | 67% | 1010.5 hPa | 0 mm | - | - | - |
| 1787429606 | 22.78° C | 66% | 1010.5 hPa | 0 mm | - | - | - |
| 1787429306 | 23.33° C | 67% | 1010.5 hPa | 0 mm | - | - | - |
| 1787429005 | 23.33° C | 66% | 1010.5 hPa | 0 mm | - | - | - |
| 1787428675 | 22.78° C | 65% | 1010.6 hPa | 0 mm | - | - | - |
| 1787428345 | 22.78° C | 64% | 1010.6 hPa | 0 mm | - | - | - |
| 1787428049 | 23.33° C | 67% | 1010.7 hPa | 0 mm | - | - | - |
| 1787427745 | 23.33° C | 66% | 1010.6 hPa | 0 mm | - | - | - |
| 1787427415 | 23.33° C | 65% | 1010.7 hPa | 0 mm | - | - | - |
| 1787427116 | 22.78° C | 65% | 1010.7 hPa | 0 mm | - | - | - |
| 1787426785 | 22.78° C | 63% | 1010.7 hPa | 0 mm | - | - | - |
| 1787426484 | 23.33° C | 65% | 1010.7 hPa | 0 mm | - | - | - |
| 1787426184 | 23.33° C | 63% | 1010.8 hPa | 0 mm | - | - | - |
| 1787425884 | 23.33° C | 66% | 1010.7 hPa | 0 mm | - | - | - |
| 1787425584 | 23.33° C | 65% | 1010.7 hPa | 0 mm | - | - | - |
| 1787425254 | 23.33° C | 67% | 1010.8 hPa | 0 mm | - | - | - |
| 1787424954 | 23.33° C | 66% | 1010.9 hPa | 0 mm | - | - | - |
| 1787424660 | 23.33° C | 65% | 1010.9 hPa | 0 mm | - | - | - |
| 1787424354 | 22.78° C | 68% | 1010.9 hPa | 0 mm | - | - | - |
| 1787424024 | 22.78° C | 68% | 1010.9 hPa | 0 mm | - | - | - |
| 1787423694 | 22.78° C | 69% | 1010.8 hPa | 0 mm | - | - | - |
| 1787423393 | 22.78° C | 68% | 1011 hPa | 0 mm | - | - | - |
* Rain latest hour (hover to see other rain measurements)
** Current wind speed in m/s (hover to see current wind gust speed)